ITY853 DGAA-LIRF

Flight info

Callsign ITY853
Flight time 5h 39m
Altitude 37000
Route LITEX1D LITEX UA603 TAMIL UG855 NY UQ594 DAMNA UY212 EREBO/N0459F380 UA604 TMS/N0458F370 UG855 BOD UG362 EBA UP623 JBA/N0446F390 UP623 RALAK/N0450F380 DCT PAN DCT MEGAN DCT RONAB DCT RUVIP DCT BETOT DCT POKAV DCT TINTO DCT VALMA
Aircraft A21N/M-SDE2E3FGHIRWXY/LB1

Departure

Time 2026-05-07 06:13
Airport Kotoka International Airport (DGAA)

Arrival

Time 2026-05-07 11:53
Airport Rome–Fiumicino Leonardo da Vinci International Airport (LIRF)
Time Latitude Longitude Altitude Speed Heading
2026-05-07 05:50 5.60223 -0.17167 217 ft 0 kts 292°
2026-05-07 06:04 5.60222 -0.17164 221 ft 3 kts 292°
2026-05-07 06:05 5.60212 -0.17139 224 ft 4 kts 292°
2026-05-07 06:05 5.60203 -0.17118 217 ft 5 kts 296°
2026-05-07 06:05 5.60188 -0.17096 216 ft 4 kts 322°
2026-05-07 06:05 5.60165 -0.17086 215 ft 4 kts 356°
2026-05-07 06:06 5.60139 -0.17089 214 ft 4 kts 19°
2026-05-07 06:06 5.60121 -0.17096 217 ft 1 kts 22°
2026-05-07 06:08 5.60133 -0.17091 217 ft 5 kts 22°
2026-05-07 06:08 5.60191 -0.17067 215 ft 12 kts 22°
2026-05-07 06:09 5.60279 -0.17030 218 ft 16 kts 22°
2026-05-07 06:09 5.60385 -0.16986 221 ft 18 kts 22°
2026-05-07 06:09 5.60505 -0.16937 224 ft 19 kts 22°
2026-05-07 06:09 5.60634 -0.16883 228 ft 21 kts 21°
2026-05-07 06:10 5.60773 -0.16828 227 ft 22 kts 22°
2026-05-07 06:10 5.60918 -0.16766 228 ft 23 kts 22°
2026-05-07 06:10 5.61071 -0.16702 228 ft 24 kts 22°
2026-05-07 06:10 5.61231 -0.16637 226 ft 23 kts 22°
2026-05-07 06:11 5.61380 -0.16575 223 ft 24 kts 22°
2026-05-07 06:11 5.61516 -0.16519 221 ft 17 kts 22°
2026-05-07 06:11 5.61573 -0.16416 218 ft 19 kts 104°
2026-05-07 06:11 5.61503 -0.16346 222 ft 12 kts 162°
2026-05-07 06:12 5.61416 -0.16353 224 ft 9 kts 204°
2026-05-07 06:12 5.61409 -0.16357 223 ft 0 kts 203°
2026-05-07 06:12 5.61399 -0.16361 223 ft 14 kts 203°
2026-05-07 06:12 5.60865 -0.16584 229 ft 110 kts 202°
2026-05-07 06:13 5.59962 -0.16955 213 ft 167 kts 202°
2026-05-07 06:13 5.58806 -0.17427 528 ft 181 kts 202°
2026-05-07 06:13 5.58014 -0.17734 985 ft 181 kts 201°
2026-05-07 06:13 5.56819 -0.18148 1583 ft 185 kts 193°
2026-05-07 06:14 5.55524 -0.18020 1968 ft 196 kts 156°
2026-05-07 06:14 5.54494 -0.17081 2406 ft 210 kts 120°
2026-05-07 06:14 5.54204 -0.15619 2862 ft 225 kts 83°
2026-05-07 06:14 5.54742 -0.14106 3255 ft 245 kts 65°
2026-05-07 06:15 5.55519 -0.12514 3720 ft 263 kts 64°
2026-05-07 06:15 5.56339 -0.10826 4337 ft 273 kts 64°
2026-05-07 06:15 5.57386 -0.09225 5079 ft 278 kts 45°
2026-05-07 06:15 5.58999 -0.08160 5842 ft 280 kts 23°
2026-05-07 06:16 5.60812 -0.07430 6611 ft 283 kts 21°
2026-05-07 06:16 5.62659 -0.06715 7349 ft 285 kts 21°
2026-05-07 06:16 5.64517 -0.05979 8065 ft 288 kts 21°
2026-05-07 06:16 5.66390 -0.05225 8750 ft 292 kts 22°
2026-05-07 06:17 5.68285 -0.04454 9394 ft 295 kts 22°
2026-05-07 06:17 5.70193 -0.03674 10034 ft 298 kts 23°
2026-05-07 06:17 5.72161 -0.02869 10397 ft 313 kts 23°
2026-05-07 06:17 5.74232 -0.02016 10660 ft 330 kts 23°
2026-05-07 06:18 5.76410 -0.01122 10895 ft 347 kts 24°
2026-05-07 06:18 5.78701 -0.00179 11122 ft 363 kts 24°
2026-05-07 06:18 5.81089 0.00806 11339 ft 379 kts 24°
2026-05-07 06:18 5.83572 0.01835 11546 ft 393 kts 23°
2026-05-07 06:19 5.86144 0.02900 11832 ft 403 kts 23°
2026-05-07 06:19 5.88761 0.03974 12298 ft 407 kts 23°
2026-05-07 06:19 5.91412 0.05026 12797 ft 410 kts 20°
2026-05-07 06:19 5.94202 0.05683 13298 ft 415 kts
2026-05-07 06:20 5.97103 0.05663 13789 ft 421 kts 354°
2026-05-07 06:20 5.99948 0.05065 14251 ft 425 kts 347°
2026-05-07 06:20 6.02826 0.04335 14717 ft 429 kts 346°
2026-05-07 06:20 6.05725 0.03584 15238 ft 432 kts 347°
2026-05-07 06:21 6.08653 0.02842 15776 ft 435 kts 347°
2026-05-07 06:21 6.11604 0.02112 16241 ft 439 kts 347°
2026-05-07 06:21 6.14584 0.01386 16685 ft 442 kts 347°
2026-05-07 06:21 6.17585 0.00646 17107 ft 445 kts 347°
2026-05-07 06:22 6.20606 -0.00077 17525 ft 448 kts 347°
2026-05-07 06:22 6.26711 -0.01580 18341 ft 454 kts 347°
2026-05-07 06:22 6.29787 -0.02335 18729 ft 457 kts 347°
2026-05-07 06:23 6.32891 -0.03093 19106 ft 460 kts 347°
2026-05-07 06:23 6.36011 -0.03851 19485 ft 463 kts 347°
2026-05-07 06:23 6.39154 -0.04606 19873 ft 466 kts 347°
2026-05-07 06:23 6.42317 -0.05359 20247 ft 468 kts 347°
2026-05-07 06:24 6.45488 -0.06127 20600 ft 471 kts 347°
2026-05-07 06:24 6.48686 -0.06904 20997 ft 474 kts 347°
2026-05-07 06:24 6.51903 -0.07691 21428 ft 477 kts 347°
2026-05-07 06:24 6.55134 -0.08489 21875 ft 480 kts 347°
2026-05-07 06:25 6.58345 -0.09281 22246 ft 483 kts 347°
2026-05-07 06:25 6.61620 -0.10062 22600 ft 485 kts 349°
2026-05-07 06:25 6.64970 -0.10475 22920 ft 487 kts 359°
2026-05-07 06:25 6.68372 -0.10401 23233 ft 489 kts
2026-05-07 06:26 6.71774 -0.10228 23521 ft 491 kts
2026-05-07 06:26 6.75193 -0.10045 23846 ft 492 kts
2026-05-07 06:26 6.78615 -0.09867 24193 ft 492 kts
2026-05-07 06:26 6.82026 -0.09696 24535 ft 491 kts
2026-05-07 06:27 6.85439 -0.09527 24876 ft 490 kts
2026-05-07 06:27 6.88845 -0.09358 25220 ft 490 kts
2026-05-07 06:27 6.92251 -0.09190 25576 ft 489 kts
2026-05-07 06:27 6.95645 -0.09026 25934 ft 488 kts
2026-05-07 06:28 6.99038 -0.08861 26273 ft 488 kts
2026-05-07 06:28 7.02429 -0.08695 26614 ft 487 kts
2026-05-07 06:28 7.05772 -0.08530 26938 ft 487 kts
2026-05-07 06:28 7.09155 -0.08364 27279 ft 486 kts
2026-05-07 06:29 7.12535 -0.08198 27610 ft 486 kts
2026-05-07 06:29 7.15911 -0.08031 27944 ft 485 kts
2026-05-07 06:29 7.19283 -0.07866 28260 ft 485 kts
2026-05-07 06:29 7.22650 -0.07700 28581 ft 484 kts
2026-05-07 06:30 7.26011 -0.07534 28899 ft 483 kts
2026-05-07 06:30 7.29373 -0.07368 29222 ft 483 kts
2026-05-07 06:30 7.32731 -0.07202 29521 ft 482 kts
2026-05-07 06:30 7.36083 -0.07037 29807 ft 482 kts
2026-05-07 06:31 7.39434 -0.06872 30095 ft 481 kts
2026-05-07 06:31 7.42781 -0.06707 30403 ft 480 kts
2026-05-07 06:31 7.46117 -0.06542 30713 ft 479 kts
2026-05-07 06:31 7.49442 -0.06377 31010 ft 478 kts
2026-05-07 06:32 7.52718 -0.06215 31298 ft 477 kts
2026-05-07 06:32 7.56029 -0.06053 31589 ft 476 kts
2026-05-07 06:32 7.59334 -0.05891 31865 ft 475 kts
2026-05-07 06:32 7.62635 -0.05728 32119 ft 474 kts
2026-05-07 06:33 7.65928 -0.05564 32382 ft 473 kts
2026-05-07 06:33 7.69213 -0.05402 32641 ft 472 kts
2026-05-07 06:33 7.72496 -0.05240 32882 ft 471 kts
2026-05-07 06:33 7.75768 -0.05080 33117 ft 470 kts
2026-05-07 06:34 7.79038 -0.04918 33345 ft 470 kts
2026-05-07 06:34 7.82300 -0.04757 33567 ft 469 kts
2026-05-07 06:34 7.85554 -0.04596 33775 ft 468 kts
2026-05-07 06:34 7.88768 -0.04437 33977 ft 467 kts
2026-05-07 06:35 7.92015 -0.04277 34174 ft 467 kts
2026-05-07 06:35 7.95261 -0.04116 34362 ft 466 kts
2026-05-07 06:35 7.98502 -0.03955 34542 ft 466 kts
2026-05-07 06:35 8.01736 -0.03795 34704 ft 465 kts
2026-05-07 06:36 8.04968 -0.03634 34853 ft 465 kts
2026-05-07 06:36 8.08214 -0.03474 34987 ft 466 kts
2026-05-07 06:36 8.11449 -0.03314 35123 ft 466 kts
2026-05-07 06:36 8.14683 -0.03154 35275 ft 466 kts
2026-05-07 06:37 8.17922 -0.02993 35423 ft 465 kts
2026-05-07 06:37 8.21155 -0.02833 35567 ft 465 kts
2026-05-07 06:37 8.24385 -0.02673 35704 ft 465 kts
2026-05-07 06:37 8.27612 -0.02513 35834 ft 464 kts
2026-05-07 06:38 8.30839 -0.02353 35961 ft 464 kts
2026-05-07 06:38 8.34065 -0.02193 36080 ft 464 kts
2026-05-07 06:38 8.37295 -0.02034 36196 ft 464 kts
2026-05-07 06:38 8.40523 -0.01874 36304 ft 464 kts
2026-05-07 06:39 8.46931 -0.01556 36498 ft 464 kts
2026-05-07 06:39 8.50158 -0.01395 36599 ft 464 kts
2026-05-07 06:39 8.53376 -0.01236 36757 ft 462 kts
2026-05-07 06:40 8.56572 -0.01078 36915 ft 458 kts
2026-05-07 06:40 8.59745 -0.00921 36943 ft 454 kts
2026-05-07 06:40 8.66052 -0.00697 36915 ft 454 kts 360°
2026-05-07 06:41 8.72381 -0.00748 36910 ft 454 kts 359°
2026-05-07 06:41 8.78668 -0.00804 36915 ft 454 kts 359°
2026-05-07 06:42 8.84993 -0.00860 36915 ft 454 kts 359°
2026-05-07 06:42 8.91310 -0.00914 36915 ft 455 kts 359°
2026-05-07 06:43 8.97634 -0.00969 36903 ft 454 kts 359°
2026-05-07 06:43 9.03965 -0.01024 36899 ft 454 kts 359°
2026-05-07 06:44 9.10293 -0.01078 36903 ft 454 kts 359°
2026-05-07 06:44 9.16636 -0.01133 36900 ft 455 kts 359°
2026-05-07 06:45 9.22970 -0.01187 36896 ft 456 kts 359°
2026-05-07 06:45 9.29296 -0.01246 36901 ft 456 kts 359°
2026-05-07 06:46 9.35637 -0.01306 36899 ft 455 kts 359°
2026-05-07 06:46 9.41973 -0.01365 36902 ft 455 kts 359°
2026-05-07 06:47 9.48264 -0.01424 36902 ft 454 kts 359°
2026-05-07 06:47 9.54604 -0.01483 36899 ft 454 kts 359°
2026-05-07 06:48 9.60935 -0.01543 36898 ft 455 kts 359°
2026-05-07 06:48 9.67265 -0.01603 36900 ft 455 kts 359°
2026-05-07 06:49 9.73612 -0.01663 36906 ft 454 kts 359°
2026-05-07 06:49 9.79943 -0.01722 36901 ft 455 kts 359°
2026-05-07 06:50 9.86278 -0.01781 36899 ft 455 kts 359°
2026-05-07 06:50 9.92608 -0.01841 36894 ft 456 kts 359°
2026-05-07 06:51 9.98951 -0.01900 36901 ft 455 kts 359°
2026-05-07 06:51 10.05297 -0.01961 36906 ft 457 kts 359°
2026-05-07 06:52 10.11652 -0.02022 36913 ft 456 kts 359°
2026-05-07 06:52 10.18013 -0.02081 36901 ft 456 kts 359°
2026-05-07 06:53 10.24330 -0.02139 36913 ft 456 kts 359°
2026-05-07 06:53 10.30682 -0.02199 36905 ft 456 kts 359°
2026-05-07 06:54 10.37040 -0.02260 36909 ft 457 kts 359°
2026-05-07 06:54 10.43401 -0.02320 36913 ft 458 kts 359°
2026-05-07 06:55 10.49753 -0.02380 36915 ft 458 kts 359°
2026-05-07 06:55 10.56112 -0.02441 36908 ft 457 kts 359°
2026-05-07 06:56 10.62418 -0.01736 36899 ft 457 kts 17°
2026-05-07 06:56 10.65357 -0.00500 36907 ft 458 kts 28°
2026-05-07 06:56 10.67991 0.01327 36909 ft 460 kts 40°
2026-05-07 06:57 10.72595 0.05812 36913 ft 456 kts 45°
2026-05-07 06:57 10.77150 0.10317 36911 ft 457 kts 44°
2026-05-07 06:58 10.81721 0.14755 36901 ft 457 kts 44°
2026-05-07 06:58 10.86314 0.19237 36910 ft 456 kts 44°
2026-05-07 06:59 10.90925 0.23709 36919 ft 456 kts 44°
2026-05-07 06:59 10.95534 0.28184 36922 ft 457 kts 43°
2026-05-07 07:00 10.99418 0.31903 36919 ft 458 kts 41°
2026-05-07 07:00 11.04432 0.35843 36917 ft 459 kts 36°
2026-05-07 07:01 11.09563 0.39702 36923 ft 459 kts 36°
2026-05-07 07:01 11.14695 0.43547 36919 ft 458 kts 36°
2026-05-07 07:02 11.19828 0.47406 36906 ft 458 kts 36°
2026-05-07 07:02 11.24974 0.51271 36919 ft 459 kts 36°
2026-05-07 07:03 11.30114 0.55126 36912 ft 459 kts 36°
2026-05-07 07:03 11.35262 0.58983 36904 ft 459 kts 36°
2026-05-07 07:04 11.40381 0.62809 36906 ft 459 kts 36°
2026-05-07 07:04 11.45523 0.66675 36910 ft 459 kts 36°
2026-05-07 07:05 11.50671 0.70544 36905 ft 459 kts 36°
2026-05-07 07:05 11.55809 0.74416 36920 ft 460 kts 36°
2026-05-07 07:06 11.60944 0.78299 36916 ft 460 kts 36°
2026-05-07 07:06 11.66091 0.82184 36905 ft 460 kts 36°
2026-05-07 07:07 11.71232 0.86052 36897 ft 459 kts 36°
2026-05-07 07:07 11.76377 0.89924 36901 ft 459 kts 36°
2026-05-07 07:08 11.81489 0.93759 36906 ft 459 kts 36°
2026-05-07 07:08 11.86624 0.97635 36904 ft 459 kts 36°
2026-05-07 07:09 11.91754 1.01520 36906 ft 459 kts 36°
2026-05-07 07:09 11.96873 1.05402 36894 ft 459 kts 36°
2026-05-07 07:10 12.02016 1.09284 36892 ft 459 kts 36°
2026-05-07 07:10 12.07157 1.13182 36900 ft 460 kts 36°
2026-05-07 07:11 12.12287 1.17071 36891 ft 460 kts 36°
2026-05-07 07:11 12.17438 1.20967 36887 ft 460 kts 36°
2026-05-07 07:12 12.22553 1.24833 36898 ft 459 kts 36°
2026-05-07 07:12 12.27699 1.28741 36892 ft 459 kts 36°
2026-05-07 07:13 12.32840 1.32628 36890 ft 460 kts 36°
2026-05-07 07:13 12.37974 1.36529 36884 ft 460 kts 36°
2026-05-07 07:14 12.43110 1.40440 36881 ft 459 kts 36°
2026-05-07 07:14 12.48240 1.44353 36881 ft 460 kts 36°
2026-05-07 07:15 12.53374 1.48263 36875 ft 460 kts 36°
2026-05-07 07:15 12.58503 1.52172 36872 ft 460 kts 36°
2026-05-07 07:16 12.63634 1.56078 36870 ft 459 kts 36°
2026-05-07 07:16 12.68770 1.59982 36863 ft 459 kts 36°
2026-05-07 07:17 12.73873 1.63860 36860 ft 460 kts 36°
2026-05-07 07:17 12.79006 1.67760 36861 ft 460 kts 36°
2026-05-07 07:18 12.84135 1.71675 36861 ft 460 kts 36°
2026-05-07 07:18 12.89257 1.75591 36858 ft 459 kts 36°
2026-05-07 07:19 12.94390 1.79510 36851 ft 460 kts 36°
2026-05-07 07:19 12.99515 1.83428 36850 ft 459 kts 36°
2026-05-07 07:20 13.04613 1.87325 36851 ft 459 kts 36°
2026-05-07 07:20 13.09772 1.91274 36851 ft 459 kts 36°
2026-05-07 07:21 13.14863 1.95174 36851 ft 459 kts 36°
2026-05-07 07:21 13.19976 1.99099 36851 ft 460 kts 36°
2026-05-07 07:22 13.25097 2.03017 36851 ft 458 kts 36°
2026-05-07 07:22 13.30205 2.06933 36851 ft 459 kts 36°
2026-05-07 07:23 13.35310 2.10855 36850 ft 458 kts 36°
2026-05-07 07:23 13.40418 2.14777 36850 ft 458 kts 36°
2026-05-07 07:24 13.45531 2.18707 36850 ft 458 kts 37°
2026-05-07 07:24 13.49907 2.23464 36851 ft 462 kts 56°
2026-05-07 07:25 13.55071 2.31809 36850 ft 461 kts 57°
2026-05-07 07:26 13.58481 2.37303 36850 ft 461 kts 57°
2026-05-07 07:26 13.61936 2.42848 36850 ft 460 kts 57°
2026-05-07 07:27 13.65395 2.48397 36850 ft 460 kts 57°
2026-05-07 07:27 13.68849 2.53943 36852 ft 461 kts 57°
2026-05-07 07:28 13.72300 2.59492 36849 ft 461 kts 57°
2026-05-07 07:28 13.75752 2.65038 36850 ft 460 kts 57°
2026-05-07 07:29 13.79201 2.70589 36850 ft 460 kts 57°
2026-05-07 07:29 13.82649 2.76150 36851 ft 460 kts 57°
2026-05-07 07:30 13.86097 2.81698 36851 ft 460 kts 57°
2026-05-07 07:30 13.89516 2.87210 36850 ft 460 kts 57°
2026-05-07 07:31 13.92951 2.92760 36852 ft 459 kts 57°
2026-05-07 07:31 13.96379 2.98319 36859 ft 459 kts 57°
2026-05-07 07:32 13.99809 3.03873 36860 ft 459 kts 57°
2026-05-07 07:32 14.03237 3.09427 36860 ft 461 kts 57°
2026-05-07 07:33 14.06681 3.14995 36860 ft 460 kts 57°
2026-05-07 07:33 14.10120 3.20566 36860 ft 461 kts 57°
2026-05-07 07:34 14.13557 3.26137 36866 ft 461 kts 57°
2026-05-07 07:34 14.16996 3.31707 36870 ft 460 kts 57°
2026-05-07 07:35 14.20438 3.37275 36871 ft 460 kts 57°
2026-05-07 07:35 14.23856 3.42808 36869 ft 460 kts 57°
2026-05-07 07:36 14.27287 3.48374 36870 ft 461 kts 57°
2026-05-07 07:36 14.30709 3.53949 36876 ft 460 kts 57°
2026-05-07 07:37 14.34123 3.59536 36880 ft 460 kts 57°
2026-05-07 07:37 14.37536 3.65116 36879 ft 459 kts 57°
2026-05-07 07:38 14.40956 3.70701 36881 ft 460 kts 57°
2026-05-07 07:38 14.44373 3.76286 36889 ft 461 kts 57°
2026-05-07 07:39 14.47764 3.81843 36891 ft 460 kts 57°
2026-05-07 07:39 14.51166 3.87431 36892 ft 459 kts 57°
2026-05-07 07:40 14.54580 3.93020 36892 ft 460 kts 57°
2026-05-07 07:40 14.57989 3.98610 36891 ft 460 kts 57°
2026-05-07 07:41 14.61398 4.04201 36891 ft 461 kts 57°
2026-05-07 07:41 14.64801 4.09800 36898 ft 461 kts 57°
2026-05-07 07:42 14.68206 4.15389 36898 ft 459 kts 57°
2026-05-07 07:42 14.71613 4.20986 36897 ft 460 kts 57°
2026-05-07 07:43 14.75015 4.26578 36901 ft 460 kts 57°
2026-05-07 07:43 14.78416 4.32183 36887 ft 462 kts 57°
2026-05-07 07:44 14.81816 4.37802 36895 ft 460 kts 57°
2026-05-07 07:44 14.85199 4.43381 36898 ft 460 kts 57°
2026-05-07 07:45 14.88611 4.48996 36901 ft 461 kts 57°
2026-05-07 07:45 14.92066 4.54578 36906 ft 461 kts 52°
2026-05-07 07:45 14.94186 4.57052 36903 ft 459 kts 41°
2026-05-07 07:46 14.96724 4.59034 36903 ft 457 kts 29°
2026-05-07 07:46 15.01526 4.61210 36897 ft 453 kts 18°
2026-05-07 07:47 15.07470 4.63394 36896 ft 454 kts 18°
2026-05-07 07:47 15.13390 4.65630 36899 ft 453 kts 18°
2026-05-07 07:48 15.19322 4.67865 36896 ft 452 kts 18°
2026-05-07 07:48 15.25252 4.70075 36899 ft 453 kts 18°
2026-05-07 07:49 15.31165 4.72317 36893 ft 453 kts 18°
2026-05-07 07:49 15.37086 4.74564 36899 ft 453 kts 18°
2026-05-07 07:50 15.43011 4.76813 36901 ft 453 kts 18°
2026-05-07 07:50 15.48894 4.79054 36895 ft 453 kts 18°
2026-05-07 07:51 15.54824 4.81318 36899 ft 454 kts 18°
2026-05-07 07:51 15.60740 4.83591 36897 ft 454 kts 18°
2026-05-07 07:52 15.66671 4.85844 36889 ft 453 kts 18°
2026-05-07 07:52 15.72603 4.88101 36900 ft 454 kts 18°
2026-05-07 07:53 15.78531 4.90361 36901 ft 453 kts 18°
2026-05-07 07:53 15.84423 4.92611 36901 ft 454 kts 18°
2026-05-07 07:54 15.90354 4.94870 36893 ft 453 kts 18°
2026-05-07 07:54 15.96289 4.97138 36895 ft 454 kts 18°
2026-05-07 07:55 16.02218 4.99412 36893 ft 453 kts 18°
2026-05-07 07:55 16.08107 5.01664 36903 ft 453 kts 18°
2026-05-07 07:56 16.14027 5.03942 36902 ft 454 kts 18°
2026-05-07 07:56 16.19951 5.06209 36907 ft 454 kts 18°
2026-05-07 07:57 16.25875 5.08487 36895 ft 453 kts 18°
2026-05-07 07:57 16.31789 5.10780 36898 ft 454 kts 18°
2026-05-07 07:58 16.37720 5.13052 36910 ft 453 kts 18°
2026-05-07 07:58 16.43608 5.15299 36904 ft 453 kts 18°
2026-05-07 07:59 16.49537 5.17580 36906 ft 454 kts 18°
2026-05-07 07:59 16.55467 5.19862 36915 ft 454 kts 18°
2026-05-07 08:00 16.61390 5.22143 36923 ft 454 kts 18°
2026-05-07 08:00 16.67319 5.24426 36911 ft 454 kts 18°
2026-05-07 08:01 16.73241 5.26713 36916 ft 454 kts 18°
2026-05-07 08:01 16.79174 5.29006 36913 ft 454 kts 18°
2026-05-07 08:02 16.85068 5.31288 36929 ft 454 kts 18°
2026-05-07 08:02 16.91002 5.33578 36930 ft 454 kts 18°
2026-05-07 08:03 16.96918 5.35909 36923 ft 454 kts 18°
2026-05-07 08:03 17.02854 5.38197 36918 ft 454 kts 18°
2026-05-07 08:04 17.08794 5.40479 36930 ft 454 kts 18°
2026-05-07 08:04 17.14720 5.42778 36930 ft 455 kts 17°
2026-05-07 08:05 17.20650 5.45070 36929 ft 454 kts 17°
2026-05-07 08:05 17.26580 5.47367 36932 ft 454 kts 18°
2026-05-07 08:06 17.32514 5.49668 36941 ft 454 kts 17°
2026-05-07 08:06 17.38401 5.51956 36940 ft 455 kts 17°
2026-05-07 08:07 17.44325 5.54257 36940 ft 454 kts 17°
2026-05-07 08:07 17.50253 5.56563 36940 ft 454 kts 17°
2026-05-07 08:08 17.56183 5.58872 36948 ft 454 kts 17°
2026-05-07 08:08 17.62109 5.61182 36950 ft 454 kts 17°
2026-05-07 08:09 17.68036 5.63496 36950 ft 454 kts 17°
2026-05-07 08:09 17.73915 5.65790 36950 ft 453 kts 17°
2026-05-07 08:10 17.79840 5.68103 36950 ft 454 kts 17°
2026-05-07 08:10 17.85754 5.70413 36951 ft 454 kts 17°
2026-05-07 08:11 17.91657 5.72755 36950 ft 453 kts 18°
2026-05-07 08:11 17.97570 5.75071 36950 ft 453 kts 17°
2026-05-07 08:12 18.03474 5.77405 36957 ft 454 kts 18°
2026-05-07 08:12 18.09386 5.79735 36960 ft 453 kts 17°
2026-05-07 08:13 18.15301 5.82063 36967 ft 454 kts 17°
2026-05-07 08:13 18.21235 5.84331 36970 ft 454 kts 17°
2026-05-07 08:14 18.27126 5.86628 36968 ft 454 kts 17°
2026-05-07 08:14 18.33046 5.88957 36969 ft 454 kts 17°
2026-05-07 08:15 18.38969 5.91284 36971 ft 455 kts 17°
2026-05-07 08:15 18.44896 5.93619 36969 ft 454 kts 17°
2026-05-07 08:16 18.50833 5.95958 36969 ft 455 kts 17°
2026-05-07 08:16 18.56762 5.98297 36972 ft 455 kts 17°
2026-05-07 08:17 18.62697 6.00643 36975 ft 456 kts 17°
2026-05-07 08:17 18.68584 6.02965 36978 ft 454 kts 17°
2026-05-07 08:18 18.74510 6.05311 36979 ft 454 kts 17°
2026-05-07 08:18 18.80428 6.07675 36979 ft 455 kts 18°
2026-05-07 08:19 18.86350 6.10019 36979 ft 455 kts 17°
2026-05-07 08:19 18.92275 6.12362 36978 ft 454 kts 17°
2026-05-07 08:20 18.98209 6.14719 36982 ft 455 kts 17°
2026-05-07 08:20 19.04142 6.17064 36989 ft 455 kts 17°
2026-05-07 08:21 19.10048 6.19395 36990 ft 455 kts 17°
2026-05-07 08:21 19.15990 6.21757 36991 ft 456 kts 17°
2026-05-07 08:22 19.21924 6.24121 36990 ft 455 kts 17°
2026-05-07 08:22 19.27865 6.26485 36991 ft 456 kts 17°
2026-05-07 08:23 19.33795 6.28860 36998 ft 457 kts 17°
2026-05-07 08:23 19.39739 6.31248 37000 ft 456 kts 17°
2026-05-07 08:24 19.45681 6.33624 37000 ft 456 kts 17°
2026-05-07 08:24 19.51600 6.35983 37000 ft 457 kts 17°
2026-05-07 08:25 19.57558 6.38339 37005 ft 457 kts 17°
2026-05-07 08:25 19.63503 6.40721 37009 ft 457 kts 17°
2026-05-07 08:26 19.72437 6.44298 37010 ft 457 kts 17°
2026-05-07 08:26 19.78378 6.46696 37010 ft 457 kts 17°
2026-05-07 08:27 19.84296 6.49074 37014 ft 457 kts 17°
2026-05-07 08:27 19.90242 6.51469 37020 ft 457 kts 17°
2026-05-07 08:28 19.96199 6.53838 37020 ft 457 kts 17°
2026-05-07 08:28 20.02163 6.56184 37020 ft 457 kts 17°
2026-05-07 08:29 20.08169 6.58360 37017 ft 453 kts
2026-05-07 08:29 20.11277 6.58766 37024 ft 448 kts 357°
2026-05-07 08:29 20.14368 6.58531 37029 ft 443 kts 346°
2026-05-07 08:30 20.20155 6.56502 37036 ft 437 kts 334°
2026-05-07 08:30 20.25750 6.54068 37029 ft 437 kts 335°
2026-05-07 08:31 20.31402 6.51668 37036 ft 437 kts 335°
2026-05-07 08:31 20.37061 6.49284 37036 ft 437 kts 335°
2026-05-07 08:32 20.42721 6.46894 37042 ft 437 kts 335°
2026-05-07 08:32 20.48381 6.44504 37040 ft 437 kts 335°
2026-05-07 08:33 20.54041 6.42116 37047 ft 438 kts 335°
2026-05-07 08:33 20.59707 6.39733 37050 ft 438 kts 335°
2026-05-07 08:34 20.64414 6.37739 37052 ft 437 kts 335°
2026-05-07 08:34 20.70077 6.35330 37049 ft 438 kts 335°
2026-05-07 08:35 20.75729 6.32925 37056 ft 438 kts 335°
2026-05-07 08:35 20.81404 6.30519 37060 ft 438 kts 335°
2026-05-07 08:36 20.87067 6.28113 37062 ft 438 kts 335°
2026-05-07 08:36 20.92725 6.25708 37061 ft 438 kts 335°
2026-05-07 08:37 20.98348 6.23315 37069 ft 437 kts 335°
2026-05-07 08:37 21.04008 6.20903 37071 ft 438 kts 335°
2026-05-07 08:38 21.09669 6.18488 37070 ft 437 kts 335°
2026-05-07 08:38 21.15334 6.16088 37071 ft 438 kts 335°
2026-05-07 08:39 21.20998 6.13675 37079 ft 438 kts 335°
2026-05-07 08:39 21.26669 6.11246 37081 ft 438 kts 335°
2026-05-07 08:40 21.32335 6.08821 37080 ft 438 kts 335°
2026-05-07 08:40 21.37964 6.06413 37081 ft 439 kts 334°
2026-05-07 08:41 21.43635 6.03986 37083 ft 438 kts 334°
2026-05-07 08:41 21.49306 6.01558 37082 ft 439 kts 334°
2026-05-07 08:42 21.54985 5.99121 37099 ft 438 kts 334°
2026-05-07 08:42 21.60628 5.96699 37103 ft 439 kts 334°
2026-05-07 08:43 21.66299 5.94268 37115 ft 439 kts 334°
2026-05-07 08:43 21.71971 5.91832 37114 ft 439 kts 334°
2026-05-07 08:44 21.77637 5.89389 37117 ft 439 kts 334°
2026-05-07 08:44 21.83310 5.86941 37117 ft 439 kts 334°
2026-05-07 08:45 21.88976 5.84501 37121 ft 439 kts 334°
2026-05-07 08:45 21.94648 5.82061 37121 ft 439 kts 334°
2026-05-07 08:46 22.00317 5.79608 37127 ft 439 kts 334°
2026-05-07 08:46 22.05984 5.77156 37130 ft 438 kts 334°
2026-05-07 08:47 22.11612 5.74716 37130 ft 439 kts 334°
2026-05-07 08:47 22.17278 5.72259 37131 ft 439 kts 334°
2026-05-07 08:48 22.22951 5.69805 37129 ft 439 kts 334°
2026-05-07 08:48 22.28623 5.67348 37130 ft 439 kts 334°
2026-05-07 08:49 22.34289 5.64889 37137 ft 438 kts 334°
2026-05-07 08:49 22.39963 5.62424 37140 ft 439 kts 334°
2026-05-07 08:50 22.45642 5.59952 37142 ft 439 kts 334°
2026-05-07 08:50 22.51307 5.57488 37138 ft 439 kts 334°
2026-05-07 08:51 22.56977 5.55020 37139 ft 439 kts 334°
2026-05-07 08:51 22.62647 5.52546 37138 ft 439 kts 334°
2026-05-07 08:52 22.68277 5.50082 37138 ft 439 kts 334°
2026-05-07 08:52 22.73951 5.47607 37139 ft 439 kts 334°
2026-05-07 08:53 22.79800 5.45601 37136 ft 447 kts 347°
2026-05-07 08:53 22.82925 5.45409 37138 ft 454 kts 358°
2026-05-07 08:53 22.86075 5.45879 37144 ft 461 kts
2026-05-07 08:54 22.92321 5.47508 37143 ft 462 kts
2026-05-07 08:54 22.98570 5.49141 37140 ft 461 kts
2026-05-07 08:55 23.04824 5.50743 37140 ft 461 kts
2026-05-07 08:55 23.11080 5.52330 37142 ft 461 kts
2026-05-07 08:56 23.17334 5.53912 37141 ft 461 kts
2026-05-07 08:56 23.23588 5.55494 37139 ft 461 kts
2026-05-07 08:57 23.29837 5.57085 37140 ft 462 kts
2026-05-07 08:57 23.36089 5.58679 37138 ft 461 kts
2026-05-07 08:58 23.42338 5.60268 37140 ft 461 kts
2026-05-07 08:58 23.48591 5.61860 37131 ft 461 kts
2026-05-07 08:59 23.54840 5.63458 37130 ft 461 kts
2026-05-07 08:59 23.61092 5.65055 37130 ft 461 kts
2026-05-07 09:00 23.67309 5.66647 37131 ft 461 kts
2026-05-07 09:00 23.73563 5.68247 37130 ft 461 kts
2026-05-07 09:01 23.79816 5.69850 37127 ft 461 kts
2026-05-07 09:01 23.86071 5.71453 37121 ft 461 kts
2026-05-07 09:02 23.92326 5.73056 37117 ft 461 kts
2026-05-07 09:02 23.98580 5.74666 37115 ft 462 kts
2026-05-07 09:03 24.04835 5.76274 37108 ft 462 kts
2026-05-07 09:03 24.11086 5.77885 37105 ft 462 kts
2026-05-07 09:04 24.17304 5.79485 37097 ft 462 kts
2026-05-07 09:04 24.23563 5.81102 37100 ft 462 kts
2026-05-07 09:05 24.29831 5.82722 37089 ft 462 kts
2026-05-07 09:05 24.36090 5.84341 37100 ft 462 kts
2026-05-07 09:06 24.42351 5.85963 37082 ft 462 kts
2026-05-07 09:06 24.48616 5.87583 37080 ft 462 kts
2026-05-07 09:07 24.54884 5.89204 37081 ft 463 kts
2026-05-07 09:07 24.61155 5.90836 37073 ft 463 kts
2026-05-07 09:08 24.67384 5.92458 37070 ft 463 kts
2026-05-07 09:08 24.73658 5.94090 37072 ft 463 kts
2026-05-07 09:09 24.79933 5.95722 37063 ft 463 kts
2026-05-07 09:09 24.86210 5.97358 37059 ft 463 kts
2026-05-07 09:10 24.92495 5.98989 37058 ft 464 kts
2026-05-07 09:10 24.98775 6.00633 37051 ft 464 kts
2026-05-07 09:11 25.05043 6.02278 37054 ft 462 kts
2026-05-07 09:11 25.11265 6.03906 37049 ft 462 kts
2026-05-07 09:12 25.17536 6.05544 37051 ft 463 kts
2026-05-07 09:12 25.23811 6.07197 37050 ft 464 kts
2026-05-07 09:13 25.30088 6.08840 37043 ft 463 kts
2026-05-07 09:13 25.36365 6.10494 37042 ft 464 kts
2026-05-07 09:14 25.42640 6.12138 37044 ft 464 kts
2026-05-07 09:14 25.48931 6.13801 37042 ft 464 kts
2026-05-07 09:15 25.55216 6.15458 37029 ft 464 kts
2026-05-07 09:15 25.61508 6.17117 37031 ft 464 kts
2026-05-07 09:16 25.67795 6.18778 37029 ft 464 kts
2026-05-07 09:16 25.74080 6.20441 37031 ft 465 kts
2026-05-07 09:17 25.80374 6.22107 37023 ft 465 kts
2026-05-07 09:17 25.86629 6.23765 37020 ft 465 kts
2026-05-07 09:18 25.92928 6.25427 37020 ft 465 kts
2026-05-07 09:18 25.99220 6.27098 37021 ft 465 kts
2026-05-07 09:19 26.05520 6.28762 37021 ft 465 kts
2026-05-07 09:19 26.11814 6.30394 37012 ft 465 kts
2026-05-07 09:20 26.18115 6.32039 37010 ft 465 kts
2026-05-07 09:20 26.23352 6.33412 37010 ft 465 kts
2026-05-07 09:21 26.29663 6.35053 37011 ft 465 kts
2026-05-07 09:21 26.35971 6.36691 37010 ft 466 kts
2026-05-07 09:22 26.42275 6.38346 37009 ft 466 kts
2026-05-07 09:22 26.48587 6.39994 37011 ft 465 kts
2026-05-07 09:23 26.54852 6.41646 37006 ft 466 kts
2026-05-07 09:23 26.61155 6.43316 36999 ft 465 kts
2026-05-07 09:24 26.67466 6.44995 36992 ft 465 kts
2026-05-07 09:24 26.73772 6.46639 36991 ft 465 kts
2026-05-07 09:25 26.80076 6.48302 36989 ft 466 kts
2026-05-07 09:25 26.86391 6.49972 36990 ft 466 kts
2026-05-07 09:26 26.92714 6.51642 36991 ft 467 kts
2026-05-07 09:26 26.99038 6.53320 36990 ft 467 kts
2026-05-07 09:27 27.05362 6.55003 36989 ft 467 kts
2026-05-07 09:28 27.14813 6.57500 36990 ft 467 kts
2026-05-07 09:28 27.21136 6.59188 36991 ft 467 kts
2026-05-07 09:29 27.27461 6.60903 36991 ft 467 kts
2026-05-07 09:29 27.33790 6.62599 36988 ft 468 kts
2026-05-07 09:30 27.40128 6.64283 36963 ft 467 kts
2026-05-07 09:30 27.46459 6.65961 36960 ft 467 kts
2026-05-07 09:31 27.52790 6.67658 36961 ft 468 kts
2026-05-07 09:31 27.59132 6.69357 36961 ft 469 kts
2026-05-07 09:32 27.65476 6.71065 36960 ft 468 kts
2026-05-07 09:32 27.71815 6.72768 36960 ft 468 kts
2026-05-07 09:33 27.78166 6.74474 36960 ft 468 kts
2026-05-07 09:33 27.84474 6.76156 36961 ft 468 kts
2026-05-07 09:34 27.90816 6.77861 36960 ft 468 kts
2026-05-07 09:34 27.97157 6.79560 36961 ft 468 kts
2026-05-07 09:35 28.03503 6.81265 36961 ft 468 kts
2026-05-07 09:35 28.09843 6.82977 36958 ft 468 kts
2026-05-07 09:36 28.15976 6.85607 36942 ft 478 kts 25°
2026-05-07 09:36 28.21718 6.89442 36940 ft 479 kts 27°
2026-05-07 09:37 28.27461 6.93262 36940 ft 478 kts 26°
2026-05-07 09:37 28.33215 6.97052 36940 ft 477 kts 26°
2026-05-07 09:38 28.38960 7.00849 36940 ft 477 kts 26°
2026-05-07 09:38 28.44661 7.04630 36940 ft 477 kts 26°
2026-05-07 09:39 28.50390 7.08438 36941 ft 477 kts 26°
2026-05-07 09:39 28.56122 7.12239 36940 ft 477 kts 26°
2026-05-07 09:40 28.61842 7.16044 36931 ft 476 kts 26°
2026-05-07 09:40 28.67574 7.19853 36930 ft 476 kts 26°
2026-05-07 09:41 28.73283 7.23662 36943 ft 475 kts 26°
2026-05-07 09:41 28.78991 7.27474 36950 ft 475 kts 26°
2026-05-07 09:42 28.84698 7.31288 36950 ft 475 kts 27°
2026-05-07 09:42 28.90400 7.35108 36950 ft 475 kts 27°
2026-05-07 09:43 28.96100 7.38932 36950 ft 475 kts 27°
2026-05-07 09:43 29.01797 7.42749 36950 ft 474 kts 27°
2026-05-07 09:44 29.07488 7.46571 36949 ft 474 kts 27°
2026-05-07 09:44 29.13140 7.50372 36941 ft 474 kts 27°
2026-05-07 09:45 29.18826 7.54205 36940 ft 474 kts 27°
2026-05-07 09:45 29.24505 7.58033 36940 ft 473 kts 27°
2026-05-07 09:46 29.30169 7.61858 36940 ft 472 kts 27°
2026-05-07 09:46 29.35826 7.65684 36941 ft 472 kts 27°
2026-05-07 09:47 29.41478 7.69516 36941 ft 472 kts 27°
2026-05-07 09:47 29.47131 7.73348 36940 ft 471 kts 27°
2026-05-07 09:48 29.52770 7.77190 36940 ft 471 kts 27°
2026-05-07 09:48 29.58417 7.80997 36938 ft 470 kts 27°
2026-05-07 09:49 29.64029 7.84769 36942 ft 470 kts 27°
2026-05-07 09:49 29.69669 7.88575 36931 ft 470 kts 27°
2026-05-07 09:50 29.75308 7.92372 36931 ft 469 kts 27°
2026-05-07 09:50 29.80945 7.96152 36930 ft 469 kts 27°
2026-05-07 09:51 29.86589 7.99958 36931 ft 469 kts 27°
2026-05-07 09:51 29.92223 8.03760 36930 ft 469 kts 27°
2026-05-07 09:52 29.97855 8.07571 36930 ft 469 kts 27°
2026-05-07 09:52 30.03483 8.11380 36929 ft 469 kts 27°
2026-05-07 09:53 30.09114 8.15192 36930 ft 469 kts 27°
2026-05-07 09:53 30.14749 8.18998 36918 ft 469 kts 27°
2026-05-07 09:54 30.20346 8.22787 36916 ft 469 kts 27°
2026-05-07 09:54 30.25971 8.26608 36929 ft 469 kts 27°
2026-05-07 09:55 30.31589 8.30441 36917 ft 469 kts 27°
2026-05-07 09:55 30.37219 8.34259 36927 ft 469 kts 27°
2026-05-07 09:56 30.42851 8.38084 36924 ft 469 kts 27°
2026-05-07 09:56 30.48479 8.41919 36918 ft 469 kts 27°
2026-05-07 09:57 30.54116 8.45714 36922 ft 469 kts 27°
2026-05-07 09:57 30.59752 8.49521 36923 ft 469 kts 27°
2026-05-07 09:58 30.65394 8.53332 36913 ft 469 kts 27°
2026-05-07 09:58 30.71034 8.57155 36913 ft 468 kts 27°
2026-05-07 09:59 30.76624 8.60948 36917 ft 468 kts 27°
2026-05-07 09:59 30.82250 8.64774 36926 ft 468 kts 27°
2026-05-07 10:00 30.87880 8.68594 36924 ft 468 kts 27°
2026-05-07 10:00 30.93507 8.72423 36922 ft 468 kts 27°
2026-05-07 10:01 30.99131 8.76259 36924 ft 468 kts 27°
2026-05-07 10:01 31.04750 8.80097 36927 ft 468 kts 27°
2026-05-07 10:02 31.10365 8.83938 36928 ft 468 kts 27°
2026-05-07 10:02 31.15979 8.87788 36916 ft 468 kts 27°
2026-05-07 10:03 31.21554 8.91618 36914 ft 468 kts 27°
2026-05-07 10:03 31.27173 8.95467 36930 ft 468 kts 27°
2026-05-07 10:04 31.32783 8.99323 36930 ft 467 kts 27°
2026-05-07 10:04 31.38393 9.03188 36931 ft 467 kts 27°
2026-05-07 10:05 31.43994 9.07050 36930 ft 467 kts 27°
2026-05-07 10:05 31.49592 9.10920 36930 ft 467 kts 27°
2026-05-07 10:06 31.55154 9.14763 36930 ft 466 kts 27°
2026-05-07 10:06 31.60743 9.18635 36931 ft 467 kts 27°
2026-05-07 10:07 31.66331 9.22510 36929 ft 466 kts 27°
2026-05-07 10:07 31.71923 9.26388 36930 ft 466 kts 27°
2026-05-07 10:08 31.77537 9.30199 36905 ft 466 kts 27°
2026-05-07 10:08 31.82202 9.33363 36914 ft 466 kts 27°
2026-05-07 10:09 31.87807 9.37188 36929 ft 465 kts 27°
2026-05-07 10:09 31.93410 9.41009 36925 ft 465 kts 27°
2026-05-07 10:10 31.99008 9.44833 36919 ft 465 kts 27°
2026-05-07 10:10 32.04600 9.48661 36919 ft 465 kts 27°
2026-05-07 10:11 32.10191 9.52501 36912 ft 465 kts 27°
2026-05-07 10:11 32.15786 9.56341 36918 ft 465 kts 27°
2026-05-07 10:12 32.21376 9.60181 36916 ft 465 kts 27°
2026-05-07 10:12 32.26965 9.64034 36916 ft 465 kts 27°
2026-05-07 10:13 32.32510 9.67874 36928 ft 465 kts 27°
2026-05-07 10:13 32.38101 9.71737 36929 ft 465 kts 27°
2026-05-07 10:14 32.43686 9.75603 36929 ft 465 kts 27°
2026-05-07 10:14 32.49264 9.79472 36930 ft 465 kts 27°
2026-05-07 10:15 32.54852 9.83345 36931 ft 465 kts 27°
2026-05-07 10:15 32.60433 9.87222 36931 ft 465 kts 27°
2026-05-07 10:16 32.66019 9.91101 36929 ft 465 kts 27°
2026-05-07 10:16 32.71606 9.94980 36931 ft 465 kts 27°
2026-05-07 10:17 32.77160 9.98843 36930 ft 465 kts 27°
2026-05-07 10:17 32.82739 10.02739 36919 ft 464 kts 27°
2026-05-07 10:18 32.88293 10.06638 36928 ft 463 kts 27°
2026-05-07 10:18 32.93852 10.10544 36929 ft 463 kts 27°
2026-05-07 10:19 32.99404 10.14432 36918 ft 463 kts 27°
2026-05-07 10:19 33.04963 10.18336 36919 ft 463 kts 27°
2026-05-07 10:20 33.10476 10.22228 36921 ft 463 kts 27°
2026-05-07 10:20 33.16034 10.26146 36910 ft 463 kts 27°
2026-05-07 10:21 33.21584 10.30065 36906 ft 464 kts 27°
2026-05-07 10:21 33.27131 10.33994 36912 ft 463 kts 27°
2026-05-07 10:22 33.32677 10.37919 36911 ft 463 kts 27°
2026-05-07 10:22 33.38218 10.41850 36908 ft 463 kts 27°
2026-05-07 10:23 33.43764 10.45786 36908 ft 463 kts 27°
2026-05-07 10:23 33.49305 10.49724 36910 ft 463 kts 27°
2026-05-07 10:24 33.54839 10.53664 36909 ft 463 kts 27°
2026-05-07 10:24 33.60376 10.57610 36915 ft 463 kts 27°
2026-05-07 10:25 33.65871 10.61535 36918 ft 463 kts 27°
2026-05-07 10:25 33.71408 10.65488 36916 ft 463 kts 27°
2026-05-07 10:26 33.76940 10.69444 36904 ft 463 kts 27°
2026-05-07 10:26 33.82464 10.73416 36911 ft 462 kts 27°
2026-05-07 10:27 33.87950 10.77554 36901 ft 466 kts 34°
2026-05-07 10:27 33.92794 10.82788 36915 ft 468 kts 40°
2026-05-07 10:28 33.97519 10.88127 36905 ft 468 kts 40°
2026-05-07 10:28 34.02281 10.93489 36891 ft 468 kts 39°
2026-05-07 10:29 34.07059 10.98856 36895 ft 470 kts 39°
2026-05-07 10:29 34.11831 11.04232 36901 ft 470 kts 39°
2026-05-07 10:30 34.18985 11.12312 36894 ft 469 kts 39°
2026-05-07 10:30 34.23745 11.17697 36893 ft 468 kts 39°
2026-05-07 10:31 34.28496 11.23082 36892 ft 468 kts 40°
2026-05-07 10:31 34.33253 11.28482 36892 ft 468 kts 39°
2026-05-07 10:32 34.37971 11.33839 36879 ft 468 kts 39°
2026-05-07 10:32 34.42749 11.39194 36881 ft 468 kts 39°
2026-05-07 10:33 34.47525 11.44559 36879 ft 468 kts 39°
2026-05-07 10:33 34.52685 11.49210 36876 ft 459 kts 22°
2026-05-07 10:34 34.55651 11.50592 36876 ft 452 kts 11°
2026-05-07 10:34 34.58715 11.51341 36877 ft 448 kts
2026-05-07 10:34 34.64878 11.52501 36870 ft 448 kts
2026-05-07 10:35 34.70997 11.53688 36869 ft 449 kts
2026-05-07 10:35 34.77164 11.54920 36870 ft 449 kts
2026-05-07 10:36 34.83337 11.56147 36862 ft 449 kts
2026-05-07 10:36 34.89513 11.57393 36860 ft 450 kts
2026-05-07 10:37 34.95697 11.58598 36861 ft 450 kts
2026-05-07 10:37 35.01885 11.59820 36860 ft 451 kts
2026-05-07 10:38 35.08078 11.61060 36860 ft 451 kts
2026-05-07 10:38 35.14282 11.62302 36860 ft 452 kts
2026-05-07 10:39 35.20446 11.63544 36853 ft 452 kts
2026-05-07 10:39 35.26657 11.64785 36850 ft 452 kts
2026-05-07 10:40 35.32868 11.66037 36851 ft 452 kts
2026-05-07 10:40 35.39079 11.67301 36850 ft 453 kts
2026-05-07 10:41 35.45298 11.68553 36851 ft 452 kts
2026-05-07 10:41 35.51512 11.69810 36851 ft 453 kts
2026-05-07 10:42 35.57733 11.71083 36844 ft 453 kts
2026-05-07 10:42 35.63959 11.72331 36842 ft 453 kts
2026-05-07 10:43 35.70187 11.73580 36841 ft 453 kts
2026-05-07 10:43 35.76411 11.74851 36838 ft 453 kts
2026-05-07 10:44 35.82638 11.76122 36848 ft 453 kts
2026-05-07 10:44 35.88861 11.77406 36849 ft 454 kts
2026-05-07 10:45 35.95084 11.78721 36851 ft 454 kts
2026-05-07 10:45 36.01277 11.79947 36852 ft 454 kts
2026-05-07 10:46 36.07514 11.81222 36860 ft 454 kts
2026-05-07 10:46 36.13755 11.82500 36860 ft 454 kts
2026-05-07 10:47 36.19985 11.83784 36860 ft 454 kts
2026-05-07 10:47 36.26218 11.85069 36866 ft 454 kts
2026-05-07 10:48 36.32462 11.86378 36870 ft 455 kts
2026-05-07 10:48 36.38710 11.87672 36871 ft 455 kts
2026-05-07 10:49 36.44914 11.88949 36870 ft 455 kts
2026-05-07 10:49 36.51159 11.90214 36870 ft 455 kts
2026-05-07 10:50 36.57401 11.91504 36875 ft 455 kts
2026-05-07 10:50 36.63646 11.92786 36881 ft 455 kts
2026-05-07 10:51 36.69894 11.94094 36880 ft 455 kts
2026-05-07 10:51 36.76138 11.95434 36880 ft 455 kts
2026-05-07 10:52 36.82393 11.96592 36878 ft 450 kts 357°
2026-05-07 10:52 36.88647 11.96875 36880 ft 449 kts 355°
2026-05-07 10:53 36.94891 11.97119 36881 ft 449 kts 355°
2026-05-07 10:53 37.01137 11.97379 36879 ft 449 kts 355°
2026-05-07 10:54 37.07342 11.97639 36871 ft 449 kts 355°
2026-05-07 10:54 37.13586 11.97901 36870 ft 449 kts 355°
2026-05-07 10:55 37.19831 11.98163 36872 ft 449 kts 355°
2026-05-07 10:55 37.25070 11.98383 36871 ft 449 kts 355°
2026-05-07 10:56 37.31279 11.98646 36872 ft 449 kts 355°
2026-05-07 10:56 37.37524 11.98908 36872 ft 449 kts 355°
2026-05-07 10:57 37.43765 11.99166 36872 ft 449 kts 355°
2026-05-07 10:57 37.50007 11.99429 36871 ft 449 kts 355°
2026-05-07 10:58 37.56218 11.99492 36870 ft 444 kts 351°
2026-05-07 10:58 37.62398 11.99220 36871 ft 444 kts 351°
2026-05-07 10:59 37.68575 11.98947 36870 ft 445 kts 351°
2026-05-07 10:59 37.74761 11.98675 36870 ft 444 kts 351°
2026-05-07 11:00 37.80940 11.98405 36879 ft 444 kts 351°
2026-05-07 11:00 37.87074 11.98139 36882 ft 444 kts 351°
2026-05-07 11:01 37.93252 11.97867 36882 ft 444 kts 351°
2026-05-07 11:01 37.99438 11.97593 36880 ft 444 kts 351°
2026-05-07 11:02 38.05619 11.97318 36881 ft 444 kts 351°
2026-05-07 11:02 38.11797 11.97040 36881 ft 444 kts 351°
2026-05-07 11:03 38.17978 11.96765 36878 ft 444 kts 351°
2026-05-07 11:03 38.24154 11.96490 36882 ft 444 kts 351°
2026-05-07 11:04 38.30288 11.96225 36888 ft 444 kts 351°
2026-05-07 11:04 38.36466 11.95952 36892 ft 444 kts 351°
2026-05-07 11:05 38.42642 11.95678 36891 ft 445 kts 351°
2026-05-07 11:05 38.48833 11.95404 36890 ft 445 kts 351°
2026-05-07 11:06 38.55021 11.95123 36890 ft 445 kts 351°
2026-05-07 11:06 38.61212 11.94841 36890 ft 445 kts 351°
2026-05-07 11:07 38.67393 11.94560 36894 ft 445 kts 351°
2026-05-07 11:07 38.73581 11.94280 36899 ft 445 kts 351°
2026-05-07 11:08 38.79771 11.94003 36899 ft 445 kts 351°
2026-05-07 11:08 38.85911 11.93724 36902 ft 444 kts 351°
2026-05-07 11:09 38.92097 11.93446 36908 ft 444 kts 351°
2026-05-07 11:09 38.98278 11.93166 36921 ft 444 kts 351°
2026-05-07 11:10 39.04455 11.92885 36903 ft 444 kts 351°
2026-05-07 11:10 39.10623 11.92603 36910 ft 443 kts 351°
2026-05-07 11:11 39.16790 11.92322 36928 ft 443 kts 351°
2026-05-07 11:11 39.22950 11.92041 36917 ft 442 kts 351°
2026-05-07 11:12 39.29104 11.91757 36914 ft 442 kts 351°
2026-05-07 11:12 39.35221 11.91475 36934 ft 442 kts 351°
2026-05-07 11:13 39.41370 11.91192 36940 ft 442 kts 351°
2026-05-07 11:13 39.47518 11.90916 36940 ft 441 kts 351°
2026-05-07 11:14 39.53653 11.90640 36946 ft 441 kts 351°
2026-05-07 11:14 39.59790 11.90357 36950 ft 441 kts 351°
2026-05-07 11:15 39.65930 11.90074 36959 ft 441 kts 351°
2026-05-07 11:15 39.72060 11.89789 36964 ft 441 kts 351°
2026-05-07 11:16 39.78184 11.89502 36969 ft 440 kts 351°
2026-05-07 11:16 39.84300 11.89212 36970 ft 439 kts 349°
2026-05-07 11:17 39.90138 11.87581 36973 ft 423 kts 333°
2026-05-07 11:17 39.95610 11.84813 36979 ft 422 kts 332°
2026-05-07 11:18 40.01081 11.82036 36977 ft 422 kts 332°
2026-05-07 11:18 40.06529 11.79297 36982 ft 422 kts 332°
2026-05-07 11:19 40.12019 11.76540 36989 ft 422 kts 332°
2026-05-07 11:19 40.17514 11.73776 36990 ft 423 kts 332°
2026-05-07 11:20 40.23008 11.71009 36990 ft 423 kts 332°
2026-05-07 11:20 40.28505 11.68239 36990 ft 424 kts 332°
2026-05-07 11:21 40.34012 11.65469 36999 ft 424 kts 332°
2026-05-07 11:21 40.39523 11.62678 37001 ft 425 kts 332°
2026-05-07 11:22 40.45034 11.59874 37000 ft 425 kts 332°
2026-05-07 11:22 40.50522 11.57086 37000 ft 426 kts 332°
2026-05-07 11:23 40.56053 11.54267 37005 ft 426 kts 332°
2026-05-07 11:23 40.61589 11.51440 37010 ft 427 kts 332°
2026-05-07 11:24 40.67129 11.48601 37010 ft 428 kts 332°
2026-05-07 11:24 40.72676 11.45758 37010 ft 428 kts 332°
2026-05-07 11:25 40.78236 11.42907 37010 ft 429 kts 332°
2026-05-07 11:25 40.83802 11.40047 37010 ft 429 kts 332°
2026-05-07 11:26 40.89377 11.37173 37011 ft 430 kts 333°
2026-05-07 11:26 40.94928 11.34314 37019 ft 432 kts 333°
2026-05-07 11:27 41.00531 11.31415 37028 ft 432 kts 333°
2026-05-07 11:27 41.06121 11.28524 36632 ft 428 kts 333°
2026-05-07 11:28 41.08905 11.27079 35703 ft 431 kts 333°
2026-05-07 11:28 41.11704 11.25624 34904 ft 433 kts 333°
2026-05-07 11:28 41.14512 11.24164 34145 ft 434 kts 333°
2026-05-07 11:28 41.17336 11.22693 33400 ft 440 kts 333°
2026-05-07 11:29 41.20190 11.21204 32579 ft 441 kts 333°
2026-05-07 11:29 41.23046 11.19718 31663 ft 441 kts 334°
2026-05-07 11:29 41.25910 11.18221 30780 ft 444 kts 334°
2026-05-07 11:29 41.28793 11.16714 29885 ft 446 kts 334°
2026-05-07 11:30 41.31693 11.15217 28947 ft 449 kts 336°
2026-05-07 11:30 41.34682 11.14095 27945 ft 457 kts 346°
2026-05-07 11:30 41.37877 11.13671 26860 ft 466 kts 357°
2026-05-07 11:30 41.41126 11.14070 25737 ft 473 kts
2026-05-07 11:31 41.44298 11.15324 24673 ft 478 kts 20°
2026-05-07 11:31 41.47231 11.17397 23770 ft 477 kts 32°
2026-05-07 11:31 41.49814 11.20130 22958 ft 473 kts 43°
2026-05-07 11:31 41.51922 11.23459 22264 ft 466 kts 55°
2026-05-07 11:32 41.54771 11.31375 21368 ft 469 kts 70°
2026-05-07 11:32 41.55878 11.35429 20736 ft 460 kts 71°
2026-05-07 11:32 41.56942 11.39414 19978 ft 453 kts 70°
2026-05-07 11:33 41.58031 11.43323 19387 ft 444 kts 70°
2026-05-07 11:33 41.59157 11.47275 19065 ft 462 kts 70°
2026-05-07 11:33 41.60296 11.51287 18805 ft 461 kts 70°
2026-05-07 11:33 41.61419 11.55285 18429 ft 456 kts 70°
2026-05-07 11:34 41.62529 11.59221 17704 ft 450 kts 70°
2026-05-07 11:34 41.63626 11.63118 16954 ft 446 kts 70°
2026-05-07 11:34 41.64709 11.66978 16264 ft 441 kts 70°
2026-05-07 11:34 41.65779 11.70794 15594 ft 437 kts 70°
2026-05-07 11:35 41.66832 11.74590 14937 ft 434 kts 70°
2026-05-07 11:35 41.67884 11.78348 14371 ft 429 kts 70°
2026-05-07 11:35 41.68924 11.82055 13856 ft 421 kts 70°
2026-05-07 11:35 41.69929 11.85643 13276 ft 415 kts 70°
2026-05-07 11:36 41.70925 11.89227 12738 ft 404 kts 70°
2026-05-07 11:36 41.71877 11.92679 12435 ft 386 kts 70°
2026-05-07 11:36 41.72782 11.95967 12258 ft 367 kts 70°
2026-05-07 11:36 41.73679 11.99075 12115 ft 349 kts 65°
2026-05-07 11:37 41.75039 12.01633 11975 ft 330 kts 42°
2026-05-07 11:37 41.76931 12.03149 11851 ft 309 kts 16°
2026-05-07 11:37 41.78987 12.03346 11718 ft 289 kts 347°
2026-05-07 11:37 41.80749 12.02312 11637 ft 271 kts 326°
2026-05-07 11:38 41.82363 12.00974 11548 ft 273 kts 329°
2026-05-07 11:38 41.84064 11.99843 11459 ft 274 kts 335°
2026-05-07 11:38 41.85833 11.98881 11376 ft 274 kts 338°
2026-05-07 11:38 41.87623 11.98002 11290 ft 274 kts 339°
2026-05-07 11:39 41.89422 11.97168 11201 ft 273 kts 340°
2026-05-07 11:39 41.91206 11.96370 11033 ft 265 kts 340°
2026-05-07 11:39 41.92935 11.95612 10800 ft 259 kts 340°
2026-05-07 11:39 41.94637 11.94877 10549 ft 255 kts 341°
2026-05-07 11:40 41.96369 11.94134 10336 ft 269 kts 341°
2026-05-07 11:40 41.98162 11.93368 10120 ft 271 kts 341°
2026-05-07 11:40 41.99955 11.92603 9929 ft 270 kts 341°
2026-05-07 11:40 42.01712 11.91855 9785 ft 270 kts 341°
2026-05-07 11:41 42.03539 11.91077 9656 ft 270 kts 341°
2026-05-07 11:41 42.05331 11.90317 9535 ft 269 kts 341°
2026-05-07 11:41 42.07116 11.89559 9407 ft 269 kts 341°
2026-05-07 11:41 42.08840 11.88827 9256 ft 258 kts 341°
2026-05-07 11:42 42.10542 11.88101 9121 ft 257 kts 341°
2026-05-07 11:42 42.12246 11.87374 8999 ft 257 kts 341°
2026-05-07 11:42 42.13981 11.86819 8977 ft 257 kts 356°
2026-05-07 11:42 42.15698 11.87261 8986 ft 248 kts 27°
2026-05-07 11:43 42.16978 11.88738 8774 ft 243 kts 57°
2026-05-07 11:43 42.17466 11.90112 8541 ft 241 kts 72°
2026-05-07 11:43 42.17936 11.92286 8181 ft 243 kts 75°
2026-05-07 11:43 42.18394 11.94491 7810 ft 245 kts 75°
2026-05-07 11:44 42.18864 11.96680 7446 ft 241 kts 75°
2026-05-07 11:44 42.19047 11.98860 7093 ft 236 kts 99°
2026-05-07 11:44 42.18400 12.00830 6764 ft 230 kts 133°
2026-05-07 11:44 42.17098 12.02009 6449 ft 226 kts 160°
2026-05-07 11:45 42.15603 12.02603 6161 ft 222 kts 165°
2026-05-07 11:45 42.14137 12.03140 5950 ft 213 kts 165°
2026-05-07 11:45 42.12747 12.03675 5755 ft 203 kts 163°
2026-05-07 11:45 42.11485 12.04474 5509 ft 201 kts 141°
2026-05-07 11:46 42.10506 12.05809 5288 ft 201 kts 131°
2026-05-07 11:46 42.09584 12.07221 5049 ft 200 kts 132°
2026-05-07 11:46 42.08657 12.08612 4817 ft 199 kts 133°
2026-05-07 11:46 42.07725 12.09993 4566 ft 199 kts 133°
2026-05-07 11:47 42.06791 12.11360 4321 ft 198 kts 133°
2026-05-07 11:47 42.05700 12.12460 4075 ft 197 kts 155°
2026-05-07 11:47 42.04413 12.13093 3981 ft 197 kts 166°
2026-05-07 11:47 42.03093 12.13604 3985 ft 197 kts 163°
2026-05-07 11:48 42.01782 12.14152 3980 ft 197 kts 163°
2026-05-07 11:48 42.00475 12.14701 3834 ft 197 kts 163°
2026-05-07 11:48 41.99170 12.15250 3609 ft 196 kts 163°
2026-05-07 11:48 41.97886 12.15790 3367 ft 196 kts 163°
2026-05-07 11:49 41.96589 12.16335 3112 ft 195 kts 163°
2026-05-07 11:49 41.95299 12.16877 2850 ft 194 kts 163°
2026-05-07 11:49 41.94011 12.17418 2585 ft 194 kts 163°
2026-05-07 11:49 41.92723 12.17959 2331 ft 193 kts 163°
2026-05-07 11:50 41.91448 12.18493 2078 ft 192 kts 162°
2026-05-07 11:50 41.90191 12.19020 1845 ft 183 kts 162°
2026-05-07 11:50 41.89024 12.19509 1660 ft 169 kts 162°
2026-05-07 11:50 41.87974 12.19949 1435 ft 143 kts 162°
2026-05-07 11:51 41.87070 12.20327 1202 ft 132 kts 162°
2026-05-07 11:51 41.86196 12.20693 1019 ft 131 kts 162°
2026-05-07 11:51 41.85330 12.21055 840 ft 130 kts 162°
2026-05-07 11:51 41.84467 12.21417 676 ft 130 kts 162°
2026-05-07 11:52 41.83618 12.21772 506 ft 129 kts 162°
2026-05-07 11:52 41.82759 12.22132 332 ft 129 kts 162°
2026-05-07 11:52 41.81900 12.22491 166 ft 129 kts 162°
2026-05-07 11:52 41.81042 12.22850 32 ft 128 kts 162°
2026-05-07 11:53 41.80306 12.23161 23 ft 77 kts 165°
2026-05-07 11:53 41.79950 12.23304 23 ft 49 kts 168°
2026-05-07 11:53 41.79657 12.23426 19 ft 28 kts 165°
2026-05-07 11:53 41.79488 12.23560 20 ft 22 kts 130°
2026-05-07 11:54 41.79387 12.23718 20 ft 23 kts 134°
2026-05-07 11:54 41.79316 12.23861 21 ft 19 kts 88°
2026-05-07 11:54 41.79355 12.24008 19 ft 16 kts 27°
2026-05-07 11:54 41.79472 12.23976 19 ft 19 kts 340°
2026-05-07 11:55 41.79602 12.23913 19 ft 20 kts 340°
2026-05-07 11:55 41.79703 12.23904 20 ft 14 kts 48°
2026-05-07 11:55 41.79744 12.24039 19 ft 17 kts 70°
2026-05-07 11:55 41.79787 12.24198 19 ft 18 kts 69°
2026-05-07 11:56 41.79830 12.24354 19 ft 19 kts 69°
2026-05-07 11:56 41.79775 12.24459 19 ft 15 kts 163°
2026-05-07 11:56 41.79676 12.24505 21 ft 12 kts 158°
2026-05-07 11:56 41.79647 12.24559 19 ft 4 kts 86°
2026-05-07 11:57 41.79655 12.24607 19 ft 5 kts 70°
2026-05-07 11:57 41.79658 12.24618 19 ft 0 kts 71°